Temp
11 11 11 11 10 10 10 11 11 12 13 13 13 14 14 14 14 15 15 16 16 16 16 16 15 16 16 15 16 16 16 14 14 14 14 13 14 13 13 15 12 12 13 13 12
10 11 11 11 11 11 10 10 11 11 12 13 13 13 14 14 15 15 15 15 16 16 16 16 16 16 16 16 16 16 16 15 14 14 15 14 14 15 14 15 14 14 12 13 12
10 10 11 11 11 11 11 10 11 11 11 12 12 13 14 14 15 16 16 16 16 17 16 16 16 16 16 16 17 16 16 15 15 15 15 15 14 15 15 15 14 15 14 13 13
10 10 10 11 11 11 11 11 11 11 11 12 12 13 13 14 14 15 16 16 16 17 16 16 16 16 16 16 16 16 16 15 15 15 15 15 14 15 14 14 14 14 14 13 13
10 10 10 11 11 11 11 11 11 11 11 12 12 12 13 14 15 14 16 16 16 17 17 17 16 16 16 16 16 16 16 15 15 15 15 14 14 14 14 14 13 14 14 14 14
11 11 11 10 11 11 11 11 11 11 11 11 12 12 13 14 15 15 15 16 16 17 17 17 17 16 16 16 16 17 16 15 15 14 14 14 13 13 13 13 14 14 14 14 14
11 11 11 11 11 11 11 11 12 11 11 11 12 12 13 14 14 14 15 16 16 17 17 17 16 16 16 16 16 16 15 15 14 14 14 14 14 13 13 13 13 13 13 14 14
10 11 11 11 11 11 11 11 11 11 11 11 11 12 14 13 14 14 15 16 16 16 16 16 16 16 17 16 16 15 14 14 14 15 15 15 15 13 13 13 13 13 13 14 14
10 11 11 11 11 11 11 10 11 11 11 11 12 12 14 14 15 14 15 16 16 16 16 16 16 16 16 16 15 15 13 14 14 15 16 15 15 14 12 12 12 13 13 13 13
10 10 11 11 11 12 11 10 10 11 11 11 12 13 13 12 13 12 13 15 16 15 16 16 16 16 16 15 15 14 14 14 17 16 15 15 16 16 14 12 13 12 12 12 12
9 10 10 10 11 11 11 10 10 10 11 12 12 13 13 12 13 12 12 14 15 15 15 16 16 16 17 16 16 15 14 15 17 16 16 15 16 17 16 15 14 13 13 12 12
9 9 10 10 10 11 11 10 10 10 13 11 12 12 14 12 12 12 12 12 14 15 15 15 16 17 17 17 16 16 16 15 15 16 15 16 16 16 16 16 16 15 15 14 13
9 9 10 10 10 10 10 9 9 9 10 14 14 13 14 13 13 13 12 12 13 14 14 15 17 17 16 17 17 16 16 16 16 15 15 15 15 15 15 15 15 14 14 14 15
9 9 9 10 10 10 10 9 9 9 9 14 14 14 15 13 12 13 12 12 12 13 14 14 17 16 16 17 17 16 17 17 16 15 14 15 14 15 15 15 15 15 15 14 14
8 9 9 9 10 9 10 9 9 8 6 13 13 13 14 14 14 13 12 12 12 12 14 14 16 16 16 17 17 18 18 17 17 16 15 14 15 17 16 15 16 16 16 15 14
8 8 9 8 10 8 9 9 8 8 7 13 12 12 13 14 13 14 13 12 13 13 13 14 15 16 17 18 17 18 17 17 17 16 13 17 15 16 17 18 18 17 16 16 15
8 8 8 9 9 8 9 8 8 8 10 13 12 12 12 12 13 13 13 13 12 12 13 14 14 15 16 17 17 17 16 16 13 12 11 16 14 17 18 18 19 19 19 18 16
7 8 8 9 8 8 8 8 7 9 11 13 13 13 12 13 13 13 13 13 13 13 13 14 14 15 16 16 16 17 16 15 12 9 13 16 14 17 18 18 18 19 18 17 17
7 7 8 8 8 8 8 7 7 9 10 10 11 12 13 13 13 13 13 13 13 13 14 14 14 15 16 16 16 16 16 17 17 15 14 16 17 18 18 19 19 18 18 17 17
7 8 7 8 8 8 7 7 8 9 9 10 10 11 11 12 12 12 12 13 14 14 14 14 15 15 15 16 16 16 17 17 16 12 13 15 18 19 19 20 19 18 18 18 17
6 7 7 7 8 7 7 8 8 8 8 9 9 10 11 11 11 11 11 13 13 14 14 14 14 15 15 16 16 16 17 17 17 17 10 11 16 19 19 19 19 20 19 18 18
4 5 6 6 6 6 7 8 8 8 8 8 9 9 9 10 10 10 11 12 14 13 14 14 14 14 15 16 16 17 17 17 17 16 17 17 17 19 19 19 19 19 19 18 17
3 4 5 5 5 5 6 7 7 7 7 8 8 9 9 9 9 10 11 13 13 13 13 14 14 14 15 15 16 16 17 17 17 18 18 15 17 19 19 19 19 19 18 17 17
2 3 2 4 3 4 4 5 6 6 6 6 7 7 8 9 9 10 11 13 14 15 15 15 15 15 14 15 16 16 17 17 18 18 18 18 19 19 19 19 18 18 18 17 17
0 1 2 2 1 2 3 4 5 5 5 6 7 8 8 9 9 11 11 11 13 14 15 14 14 15 16 16 16 17 17 17 18 18 19 19 19 19 19 18 18 18 17 17 18
-1 -1 1 1 2 2 3 3 4 5 6 7 8 9 9 9 10 11 11 11 13 14 14 15 15 15 16 16 16 16 17 17 17 18 19 19 19 19 19 18 18 18 17 17 17
-2 -2 -1 -0 1 2 2 3 4 4 6 7 7 9 9 9 10 11 10 12 12 12 13 14 15 15 15 16 16 16 17 17 18 17 18 18 18 18 18 18 18 18 17 17 17
Height
3164 3163 3161 3159 3157 3155 3154 3152 3151 3149 3149 3149 3149 3150 3150 3151 3151 3152 3152 3160 3160 3162 3167 3170 3172 3170 3171 3171 3173 3174 3175 3176 3175 3174 3174 3177 3178 3179 3180 3178 3179 3181 3183 3183 3183
3160 3159 3158 3157 3154 3153 3151 3149 3148 3146 3145 3144 3144 3145 3145 3145 3145 3145 3150 3149 3154 3160 3165 3168 3169 3169 3171 3172 3174 3174 3175 3176 3177 3175 3175 3177 3179 3178 3180 3179 3180 3181 3183 3184 3184
3157 3156 3154 3153 3152 3150 3147 3146 3144 3143 3142 3141 3140 3140 3140 3140 3140 3140 3143 3147 3151 3158 3162 3164 3167 3168 3169 3170 3172 3172 3173 3175 3175 3175 3177 3178 3179 3181 3180 3181 3182 3182 3183 3184 3185
3154 3152 3150 3149 3149 3147 3145 3142 3141 3140 3139 3137 3136 3136 3136 3136 3139 3136 3139 3143 3148 3154 3158 3161 3163 3166 3168 3170 3171 3170 3171 3173 3173 3174 3177 3178 3179 3180 3182 3184 3183 3184 3185 3185 3187
3152 3150 3147 3145 3144 3143 3142 3140 3137 3136 3136 3134 3133 3132 3132 3132 3134 3132 3133 3138 3144 3150 3156 3158 3161 3164 3169 3170 3171 3169 3169 3172 3174 3176 3178 3178 3179 3181 3182 3184 3184 3185 3186 3187 3188
3149 3147 3145 3143 3140 3139 3138 3136 3134 3133 3132 3131 3129 3128 3128 3129 3129 3129 3132 3136 3141 3147 3153 3155 3160 3164 3167 3168 3167 3167 3167 3173 3176 3176 3176 3176 3177 3181 3181 3184 3185 3186 3187 3187 3188
3145 3144 3142 3139 3138 3136 3134 3132 3130 3129 3128 3127 3126 3124 3123 3126 3124 3126 3130 3134 3139 3146 3150 3154 3159 3162 3165 3165 3164 3167 3168 3173 3176 3177 3177 3178 3179 3178 3180 3182 3183 3184 3185 3187 3187
3140 3139 3138 3136 3134 3132 3131 3128 3126 3124 3123 3123 3122 3121 3118 3121 3123 3126 3128 3132 3135 3140 3144 3150 3154 3158 3162 3163 3163 3165 3170 3171 3174 3177 3177 3179 3178 3177 3178 3179 3181 3182 3183 3185 3186
3136 3134 3133 3132 3131 3129 3128 3124 3122 3120 3119 3118 3119 3118 3117 3117 3120 3123 3127 3132 3134 3138 3142 3146 3150 3154 3159 3161 3162 3164 3166 3169 3172 3174 3174 3176 3175 3175 3177 3177 3179 3179 3181 3183 3184
3132 3130 3129 3128 3126 3125 3124 3120 3117 3115 3114 3113 3113 3117 3115 3113 3114 3116 3121 3127 3131 3134 3139 3141 3145 3148 3153 3157 3160 3161 3167 3167 3165 3169 3171 3173 3173 3172 3174 3176 3177 3180 3180 3180 3180
3125 3125 3125 3124 3121 3121 3121 3117 3116 3113 3110 3110 3109 3109 3111 3111 3112 3114 3117 3121 3124 3128 3132 3136 3138 3139 3148 3155 3158 3163 3165 3162 3165 3167 3168 3171 3172 3172 3173 3175 3176 3177 3179 3180 3180
3119 3120 3120 3119 3118 3117 3116 3112 3110 3108 3101 3105 3102 3101 3105 3108 3107 3110 3112 3115 3118 3121 3128 3133 3131 3140 3148 3152 3155 3160 3162 3164 3167 3166 3169 3170 3172 3173 3172 3173 3175 3175 3176 3177 3178
3113 3114 3114 3114 3114 3113 3111 3110 3107 3105 3098 3090 3094 3091 3096 3101 3102 3105 3108 3110 3113 3117 3121 3124 3132 3139 3143 3147 3150 3155 3157 3159 3162 3165 3169 3172 3173 3171 3171 3173 3174 3173 3175 3176 3177
3107 3106 3107 3108 3111 3109 3107 3107 3106 3105 3099 3087 3085 3083 3083 3092 3093 3102 3103 3108 3110 3112 3119 3124 3131 3134 3138 3142 3147 3149 3153 3156 3159 3162 3161 3165 3165 3165 3166 3168 3170 3170 3170 3171 3173
3102 3100 3100 3101 3104 3103 3104 3103 3105 3106 3103 3088 3084 3083 3082 3084 3090 3093 3100 3103 3105 3110 3115 3116 3122 3127 3131 3137 3143 3148 3151 3154 3155 3158 3158 3159 3162 3159 3163 3164 3162 3162 3165 3167 3170
3096 3094 3094 3095 3098 3097 3098 3100 3104 3107 3097 3086 3084 3082 3080 3080 3086 3092 3096 3101 3105 3110 3111 3115 3120 3124 3128 3136 3139 3145 3146 3147 3148 3150 3151 3149 3153 3151 3153 3154 3155 3159 3160 3161 3165
3090 3089 3088 3089 3092 3091 3093 3097 3100 3093 3090 3086 3083 3081 3079 3079 3086 3089 3093 3095 3097 3104 3105 3110 3113 3118 3124 3129 3135 3137 3142 3146 3147 3148 3145 3145 3149 3145 3147 3148 3149 3151 3154 3157 3159
3082 3081 3083 3084 3083 3085 3087 3091 3085 3081 3082 3080 3080 3079 3082 3082 3086 3088 3090 3092 3096 3098 3102 3104 3109 3111 3117 3120 3127 3132 3136 3139 3147 3148 3139 3138 3140 3134 3142 3144 3146 3148 3152 3155 3155
3076 3075 3075 3075 3076 3078 3080 3076 3075 3078 3080 3080 3079 3078 3080 3081 3085 3087 3088 3090 3091 3095 3099 3101 3100 3108 3113 3119 3124 3126 3127 3134 3134 3134 3133 3132 3133 3133 3137 3138 3140 3140 3145 3148 3151
3068 3068 3067 3068 3069 3070 3069 3065 3068 3073 3077 3078 3077 3077 3077 3078 3081 3082 3083 3086 3088 3090 3095 3098 3099 3102 3109 3116 3116 3118 3125 3127 3125 3130 3130 3125 3125 3128 3130 3132 3133 3132 3138 3143 3148
3061 3060 3060 3059 3060 3060 3057 3059 3062 3068 3072 3076 3074 3073 3074 3074 3076 3078 3078 3080 3083 3088 3091 3094 3096 3098 3102 3101 3105 3113 3114 3117 3120 3117 3120 3125 3119 3124 3125 3128 3126 3129 3132 3138 3143
3055 3054 3053 3052 3054 3051 3051 3055 3059 3059 3065 3067 3067 3068 3069 3072 3070 3073 3072 3074 3078 3081 3082 3086 3090 3091 3089 3097 3102 3103 3106 3109 3111 3114 3112 3114 3114 3119 3122 3124 3124 3126 3130 3134 3139
3049 3048 3045 3045 3046 3047 3048 3049 3051 3054 3057 3058 3060 3062 3065 3067 3068 3065 3066 3066 3068 3069 3069 3076 3080 3084 3086 3091 3092 3092 3098 3103 3105 3107 3105 3109 3111 3114 3116 3119 3120 3122 3126 3130 3135
3043 3042 3039 3038 3041 3041 3041 3043 3045 3048 3049 3049 3051 3057 3057 3057 3060 3053 3057 3057 3056 3057 3061 3070 3070 3074 3073 3077 3085 3090 3093 3096 3097 3098 3099 3100 3106 3109 3111 3113 3115 3118 3121 3124 3127
3037 3036 3035 3034 3037 3036 3035 3038 3039 3040 3042 3044 3043 3048 3050 3048 3049 3052 3055 3054 3053 3053 3053 3057 3062 3067 3068 3074 3081 3083 3087 3089 3089 3092 3093 3097 3098 3102 3106 3108 3110 3112 3117 3120 3122
3031 3030 3029 3030 3030 3031 3030 3033 3033 3036 3036 3037 3036 3041 3042 3040 3041 3046 3053 3051 3052 3050 3046 3047 3053 3059 3062 3068 3073 3077 3080 3083 3084 3085 3086 3089 3092 3097 3100 3102 3105 3109 3112 3115 3117
3024 3023 3023 3023 3024 3025 3025 3025 3029 3029 3031 3032 3031 3034 3036 3037 3036 3038 3048 3048 3048 3046 3043 3042 3046 3051 3054 3061 3068 3070 3071 3075 3076 3076 3081 3083 3089 3091 3094 3097 3101 3104 3106 3108 3112
Wind_Speed
14 14 14 15 16 16 16 16 16 17 20 22 23 22 21 20 21 23 23 25 31 28 21 13 16 18 15 17 10 11 11 16 24 22 20 19 15 15 9 13 12 9 11 18 23
15 15 16 16 17 17 17 16 15 15 15 18 20 20 20 20 20 19 16 25 31 32 23 19 14 20 18 15 9 5 3 3 19 20 18 17 8 8 13 11 13 15 17 17 16
15 15 16 17 17 17 18 18 16 15 15 15 17 18 18 18 18 13 16 21 28 31 27 24 18 23 25 13 11 9 11 5 18 18 17 15 11 9 14 12 6 8 16 18 16
17 16 16 17 17 17 18 19 18 15 16 16 15 17 18 16 7 7 17 21 26 31 31 27 23 23 25 20 11 14 9 10 21 16 20 18 15 13 8 8 8 6 12 16 20
19 18 17 17 17 18 18 18 20 17 16 17 16 16 17 16 8 13 21 25 28 34 33 31 26 22 19 12 12 21 17 16 18 17 17 17 17 14 13 9 8 8 10 10 12
19 20 20 19 18 17 17 18 19 19 17 18 18 16 17 12 11 15 21 26 29 36 35 34 27 22 14 7 12 18 28 26 24 23 21 18 16 19 15 12 10 8 9 9 9
18 20 21 21 21 19 18 19 20 19 19 18 18 18 17 8 14 19 22 28 30 35 38 32 25 22 17 6 9 23 29 32 27 27 26 19 15 15 14 15 11 11 11 10 9
20 19 21 22 23 22 19 20 21 20 18 18 18 19 15 12 15 20 24 31 35 38 34 28 27 25 15 5 12 25 31 36 28 25 16 11 11 15 19 19 15 12 13 12 12
23 22 21 22 23 23 20 21 21 20 18 18 20 18 9 12 12 18 22 28 33 36 34 30 31 28 18 12 22 30 38 33 32 24 18 12 9 10 20 20 16 13 13 12 12
24 23 22 22 23 21 19 22 21 21 21 20 22 17 12 13 18 21 21 26 34 34 33 33 33 31 26 19 23 37 33 32 25 29 22 17 8 8 12 16 19 18 15 14 15
25 23 21 22 22 21 18 20 22 22 22 24 20 18 12 17 20 25 20 25 35 35 37 36 37 39 31 20 11 38 36 36 26 26 26 21 16 8 11 12 14 16 15 13 12
26 24 21 21 22 20 19 18 23 26 30 24 30 30 18 20 25 29 26 24 34 37 35 37 42 38 28 23 17 21 14 40 28 27 29 23 18 13 11 8 10 11 10 10 10
25 24 23 21 19 18 18 18 21 25 32 33 25 33 19 29 30 31 34 30 31 37 37 42 44 37 33 29 25 18 17 13 29 28 28 19 20 22 20 15 16 15 10 9 7
25 24 23 20 19 18 17 17 19 20 22 31 11 9 25 34 36 31 29 33 32 37 34 35 45 37 35 34 29 23 19 12 26 31 28 29 16 28 27 26 24 22 21 20 15
23 24 22 20 16 17 18 16 14 12 6 9 8 9 7 39 36 37 31 32 37 28 35 32 46 46 40 40 33 26 20 17 11 30 34 34 14 26 31 31 29 28 24 25 21
23 23 21 20 15 16 18 17 13 7 10 6 8 15 14 26 39 26 32 30 34 29 32 36 25 47 48 42 32 25 21 18 23 28 18 36 34 27 32 27 25 30 27 25 27
23 22 22 18 15 15 19 17 14 12 8 2 5 9 9 18 32 22 32 35 35 35 29 33 37 36 37 49 36 32 23 5 3 3 6 35 31 32 25 27 23 25 17 13 26
22 22 20 20 18 16 20 21 18 11 36 10 8 7 10 11 33 22 32 37 39 36 28 27 28 42 38 38 36 35 31 16 7 5 9 15 18 45 34 30 25 25 26 20 16
23 21 20 22 22 19 24 31 26 33 17 16 25 23 18 8 9 28 26 36 37 41 28 31 27 35 42 36 34 34 32 27 29 12 5 13 12 22 23 16 20 32 32 34 20
21 20 21 22 22 25 30 39 35 35 23 17 13 6 7 12 8 6 4 26 41 33 42 26 14 36 37 32 34 36 29 16 16 6 5 7 11 14 20 24 32 24 32 29 25
21 21 17 18 22 27 37 37 36 38 23 24 31 30 29 29 26 22 17 19 21 37 35 44 32 26 28 38 37 31 34 32 23 21 7 4 17 27 23 26 22 21 21 30 24
20 19 17 18 23 26 34 35 33 36 25 19 31 36 30 24 29 26 27 22 17 20 45 46 39 41 38 29 27 32 34 33 30 12 11 18 26 20 21 19 11 16 22 28 21
19 18 21 19 17 22 24 27 27 28 28 27 31 30 25 26 20 23 26 17 22 25 39 48 43 35 37 39 35 33 31 28 34 36 33 14 18 20 14 15 17 20 25 25 22
20 11 11 19 20 21 21 22 22 19 18 19 24 23 17 18 25 20 26 18 13 18 33 47 46 45 33 34 30 28 33 29 30 36 28 34 32 25 20 19 19 24 27 23 25
20 18 17 13 22 27 27 23 23 23 20 19 22 25 19 22 21 34 30 22 23 21 24 46 43 45 49 49 34 26 27 25 31 44 33 38 35 32 24 23 22 25 31 29 24
21 22 24 20 21 22 20 19 21 17 18 17 17 20 20 24 25 24 22 27 22 6 7 40 49 46 47 44 46 43 35 37 39 44 44 39 32 30 27 26 28 28 27 29 28
23 24 24 22 18 20 19 20 20 17 16 16 5 16 18 16 21 30 24 26 16 16 10 11 49 43 40 45 34 32 40 28 28 38 42 33 29 15 24 29 28 30 30 28 29
Wind_Direction
296 294 295 296 295 295 299 295 286 284 277 272 268 268 269 264 257 246 245 224 229 233 227 213 149 159 137 153 150 150 131 155 169 172 149 147 133 123 109 103 125 159 159 147 154
298 294 292 295 298 296 296 299 286 290 284 277 273 270 270 271 264 250 231 218 212 219 210 202 195 172 159 141 165 157 153 160 185 185 165 161 180 153 139 117 119 140 163 155 156
305 298 293 292 295 299 296 297 293 287 288 279 278 275 272 275 275 248 220 217 205 206 203 205 210 201 203 228 219 242 247 244 206 210 196 167 168 154 154 134 105 134 147 154 157
305 304 297 292 292 296 298 294 298 283 285 280 278 279 277 273 272 230 198 205 199 198 202 205 212 206 215 222 233 283 232 240 207 197 189 198 189 167 151 141 109 125 152 152 155
300 300 301 295 290 291 295 296 294 293 280 282 278 280 278 267 231 221 187 191 194 191 196 203 214 214 206 215 235 256 199 206 194 192 197 203 205 188 170 175 156 159 175 162 156
299 300 299 300 294 289 290 294 293 295 281 282 279 278 277 268 225 211 189 184 189 188 193 205 210 213 209 229 247 197 186 180 192 185 195 207 196 188 197 188 177 171 186 176 176
295 299 299 299 298 296 289 289 291 289 286 280 279 279 271 233 217 197 190 178 186 185 198 207 206 208 215 187 194 200 185 175 178 190 198 212 213 215 223 202 206 193 189 191 182
292 292 295 297 297 296 297 289 286 287 287 278 276 279 268 233 220 201 193 182 185 186 195 196 200 202 181 162 176 190 183 175 177 181 173 177 203 200 221 217 205 206 202 204 203
291 294 293 293 293 296 298 292 290 284 280 270 272 274 260 236 211 201 200 189 194 193 192 194 200 204 199 153 169 189 180 175 177 196 193 194 174 190 205 213 224 225 219 218 216
285 287 292 294 293 295 298 293 291 280 274 266 264 266 223 204 185 193 202 202 201 199 194 197 203 208 204 183 186 181 193 192 193 197 206 205 229 183 189 213 218 217 224 220 224
283 283 285 288 290 294 293 288 286 280 272 264 261 260 219 187 203 193 185 202 202 203 198 197 206 209 208 203 177 190 207 204 213 206 212 216 234 244 185 172 182 186 192 179 165
286 286 283 283 285 291 290 283 287 290 286 265 269 265 234 210 208 193 196 205 203 202 195 201 211 210 211 211 208 196 208 217 215 208 205 210 229 225 221 224 186 176 175 162 165
288 286 283 279 278 281 279 272 277 288 291 299 288 264 240 222 215 191 204 205 212 204 200 205 207 208 211 214 214 217 213 211 217 207 199 215 218 215 216 221 220 222 220 220 211
290 287 279 275 276 273 267 263 270 281 303 301 314 316 230 212 226 196 201 206 213 215 204 213 203 213 213 216 216 227 214 228 220 199 197 210 206 218 227 225 228 231 226 224 214
288 286 281 275 266 265 258 250 258 275 318 298 318 321 252 210 220 202 203 208 210 211 207 207 205 210 214 214 217 218 221 232 241 211 203 200 220 231 230 231 238 240 233 231 229
283 284 280 274 262 259 249 235 227 230 248 288 313 309 282 211 213 212 202 208 208 214 217 218 209 213 219 215 222 214 240 270 282 229 208 216 208 225 225 245 257 242 240 237 231
282 277 277 265 256 252 240 222 215 213 246 291 95 27 287 227 194 190 202 203 203 208 219 223 218 214 219 221 225 228 243 258 279 205 213 218 209 225 247 255 254 249 254 230 239
281 272 267 265 256 247 233 218 221 232 237 259 250 348 347 231 206 207 203 208 208 209 216 214 223 215 210 222 229 233 236 217 192 200 223 217 204 238 250 260 258 249 245 241 240
281 272 263 251 256 242 233 221 228 230 248 266 268 286 285 182 189 226 222 221 213 214 211 221 231 222 223 222 229 235 244 251 252 247 198 205 221 249 236 263 285 251 236 237 224
281 269 260 255 249 242 231 232 234 234 239 249 274 275 276 262 294 273 274 237 226 223 216 222 234 226 219 228 237 239 244 245 230 172 231 224 220 247 248 254 283 232 217 210 216
283 273 267 244 241 232 229 238 243 242 239 244 254 268 269 282 289 292 287 260 246 233 226 224 231 226 226 228 230 230 230 238 249 235 174 226 253 252 263 273 271 232 221 211 211
282 278 259 244 243 234 236 241 248 245 235 251 256 263 268 275 276 280 276 270 252 259 230 228 231 237 233 224 230 239 243 245 232 230 225 235 250 260 254 265 231 232 224 218 212
279 271 261 256 241 229 236 240 248 255 258 252 255 257 270 274 283 271 278 268 295 284 235 224 220 224 244 245 231 239 233 245 252 239 228 215 243 251 230 234 223 225 215 217 212
290 266 259 231 222 228 234 236 243 252 268 248 259 261 266 270 231 262 265 282 308 272 229 227 218 219 226 231 225 230 241 253 248 223 227 236 242 240 249 217 204 211 210 216 218
278 266 239 218 232 238 244 252 253 268 269 268 265 254 248 260 249 228 254 294 301 246 239 222 217 221 232 237 231 219 232 264 245 237 230 240 235 247 248 227 230 212 206 214 228
273 268 264 255 242 248 238 251 254 251 264 275 260 250 243 252 234 213 238 272 271 245 294 218 217 223 231 237 241 243 253 259 257 239 231 233 239 244 247 227 215 213 217 218 228
268 267 267 262 252 252 254 242 243 259 251 252 232 228 229 213 219 206 228 247 255 303 325 220 215 218 228 232 236 230 239 249 273 236 233 228 239 238 229 221 220 223 223 231 227